{"data":{"norad_id":25504,"intl_designator":"1998-060A","name":"SCD 2","alt_names":[],"object_type":"PAYLOAD","status":"ACTIVE","operator":null,"country":"BRAZ","launch_date":"1998-10-23","launch_site_code":"ERAS","launch_vehicle":null,"mission":null,"orbit_class":"UNKNOWN","rcs_meters":0.4591,"size_class":null,"mass_kg":null,"dimensions":null,"purposes":["earth_obs"],"wikipedia_slug":null,"has_3d_model":false,"image_url":null,"decayed_at":null,"tle_current":{"epoch":"2026-05-24T22:02:50.953056Z","epoch_age_seconds":75225,"freshness":"FRESH","line1":"1 25504U 98060A   26144.91864529  .00000332  00000+0  41774-4 0  9994","line2":"2 25504  24.9943 215.6577 0016497 236.9509 284.0833 14.45515411456951","mean_motion":14.45515411,"eccentricity":0.0016497,"inclination_deg":24.9943,"raan_deg":215.6577,"arg_perigee_deg":236.9509,"mean_anomaly_deg":284.0833,"bstar":4.1774e-5,"rev_number":45695,"period_min":99.61844675207,"perigee_km":728.59017488723,"apogee_km":752.07685650672,"semimajor_km":7118.470515697,"source":"CELESTRAK","updated_at":"2026-05-25T13:38:12.740139Z"}}}